Date,TemperatureHighF,TemperatureAvgF,TemperatureLowF,DewpointHighF,DewpointAvgF,DewpointLowF,HumidityHigh,HumidityAvg,HumidityLow,PressureMaxIn,PressureMinIn,WindSpeedMaxMPH,WindSpeedAvgMPH,GustSpeedMaxMPH,PrecipitationSumIn
2014-1-1,54.2,46.3,40.4,48.2,43.5,35.2,97,90,76,30.33,30.17,4,0,6,0.09
2014-1-2,52.8,50.1,46.8,50.1,48.3,46.0,97,94,86,30.22,30.14,4,1,7,0.08
2014-1-3,54.1,51.0,47.6,52.1,49.6,47.1,98,95,83,30.28,30.20,3,0,4,0.15
2014-1-4,58.5,51.1,44.2,50.1,46.8,39.7,97,86,51,30.29,30.10,13,4,17,0.19
2014-1-5,54.1,44.5,36.2,39.9,35.6,23.0,91,73,31,30.39,30.26,5,1,7,0.00
2014-1-6,61.8,46.4,35.4,37.5,32.9,18.5,88,65,19,30.26,30.19,8,2,12,0.00
2014-1-7,64.9,48.3,35.6,37.9,31.4,25.2,83,56,27,30.26,30.17,5,1,6,0.00
2014-1-8,68.8,51.9,40.9,32.6,28.1,20.2,59,42,16,30.24,30.15,7,2,8,0.00
2014-1-9,60.4,50.2,40.3,34.9,28.5,22.4,72,44,30,30.20,30.04,8,3,9,0.00
2014-1-10,59.2,50.1,42.8,41.3,36.8,32.4,73,61,46,30.03,29.93,6,2,8,0.00
2014-1-11,56.9,50.0,45.0,45.6,42.3,39.3,88,75,60,30.22,30.00,3,0,6,0.01
2014-1-12,59.6,48.3,41.1,47.2,43.2,39.1,95,84,55,30.35,30.22,5,1,5,0.00
2014-1-13,47.7,44.4,40.5,46.3,41.5,34.9,95,90,79,30.31,30.18,4,1,9,0.31
2014-1-14,48.4,43.8,39.1,47.9,41.8,34.6,98,93,78,30.29,30.17,4,2,9,0.32
2014-1-15,49.9,47.5,44.6,48.0,46.1,43.3,98,95,88,30.21,30.05,5,1,9,0.02
2014-1-16,49.3,46.0,39.5,48.7,45.0,38.5,98,96,91,30.04,29.92,4,0,4,0.37
2014-1-17,46.9,42.3,37.8,42.4,39.8,36.8,97,91,81,29.93,29.58,5,1,8,0.25
2014-1-18,48.5,43.0,40.7,43.6,40.5,38.8,95,91,80,29.62,29.50,6,2,13,0.34
2014-1-19,44.4,40.4,36.3,40.6,37.3,33.6,97,89,74,30.04,29.28,7,3,22,0.61
2014-1-20,44.9,38.6,32.1,37.5,34.1,30.5,95,84,71,30.24,30.04,6,1,10,0.00
2014-1-21,47.7,40.7,33.4,40.5,35.5,31.6,94,82,59,30.25,30.14,3,0,10,0.00
2014-1-22,49.0,45.1,42.5,45.5,43.3,40.6,97,93,85,30.13,30.00,5,1,9,0.75
2014-1-23,50.3,44.0,39.0,42.5,36.1,32.2,96,75,53,30.44,30.09,11,4,12,0.02
2014-1-24,55.0,43.1,31.4,39.1,34.2,29.1,91,72,43,30.48,30.34,7,2,12,0.00
2014-1-25,54.1,46.6,38.7,46.1,41.5,35.7,92,83,71,30.40,30.29,7,2,12,0.00
2014-1-26,62.4,50.9,40.4,47.2,43.3,38.0,94,77,49,30.38,30.23,6,2,8,0.00
2014-1-27,51.5,47.0,41.7,48.2,43.6,35.3,98,88,75,30.23,30.02,6,3,13,0.11
2014-1-28,45.2,41.6,37.8,44.1,37.5,34.7,97,85,71,30.12,29.82,7,3,12,0.02
2014-1-29,46.0,42.2,38.9,45.2,38.9,33.9,97,89,67,29.81,29.62,6,2,11,0.51
2014-1-30,43.4,38.8,34.4,35.5,34.1,32.9,96,83,70,30.05,29.80,7,2,16,0.00
2014-1-31,47.4,42.2,38.0,46.6,40.4,33.2,97,93,72,30.09,30.01,2,0,4,0.37